Temp
24 22 21 24 22 24 24 23 22 23 24 23 22 22 23 23 23 22 22 23 23 23 23 23 22 22 21 20 20 21 20 20 20 21 20 20 20 20 20 21 21 21 20 20
24 22 24 24 23 24 24 23 21 22 22 22 21 22 23 23 23 23 23 23 23 23 23 22 22 22 21 21 21 21 20 20 21 21 20 20 20 20 20 20 21 20 20 20
23 26 28 26 23 24 23 22 21 22 21 20 21 21 22 22 23 24 24 24 23 24 23 23 22 22 22 21 21 20 20 21 21 21 20 20 20 21 20 20 20 20 20 20
24 27 28 25 23 23 21 24 24 21 21 20 21 20 20 22 21 22 24 23 24 23 23 23 22 22 22 21 21 20 20 21 21 21 21 20 20 20 20 20 20 20 20 20
25 27 28 25 25 24 24 24 24 21 19 20 19 20 20 21 22 23 23 24 23 24 23 23 23 23 23 22 21 20 20 20 20 20 20 20 20 20 20 20 19 20 20 19
25 28 28 26 28 25 26 22 19 19 18 19 19 19 20 19 23 24 24 25 23 23 23 24 24 23 23 22 21 20 20 20 20 20 20 20 20 20 19 19 19 19 19 18
24 26 27 29 27 24 24 20 17 19 19 21 19 19 22 22 23 25 24 25 24 24 24 24 23 23 23 22 21 20 20 20 19 19 19 19 19 19 19 19 19 19 18 17
23 23 27 28 27 24 22 21 22 22 18 20 19 19 22 20 22 24 23 24 25 24 23 24 24 23 22 22 22 20 20 19 19 19 19 19 19 19 19 19 18 18 18 17
20 22 25 26 27 26 26 22 23 20 20 20 19 21 21 18 17 17 17 19 20 22 23 22 22 22 22 22 22 21 20 19 19 18 18 19 19 18 18 16 16 16 17 17
23 24 25 27 28 26 25 23 23 19 23 23 21 21 21 18 17 17 16 15 15 16 18 21 21 21 20 20 20 21 20 19 17 17 17 17 16 16 16 16 16 15 16 17
21 21 24 26 26 25 25 23 19 19 18 20 20 20 20 17 16 15 14 13 14 15 15 15 16 20 19 18 17 18 16 16 16 16 15 15 14 14 15 15 15 16 16 16
22 18 21 23 24 23 26 26 20 19 22 17 18 18 17 17 15 14 13 14 15 16 16 16 14 15 16 16 18 17 17 16 15 15 14 14 14 14 14 12 14 15 15 15
23 19 19 22 22 23 23 23 20 16 16 17 19 18 16 15 15 14 14 16 16 18 18 18 16 15 15 15 15 15 15 14 14 14 13 13 13 13 13 13 13 14 14 14
22 16 19 19 22 21 22 21 22 19 18 17 18 17 16 16 15 14 13 13 13 13 16 15 14 14 16 16 16 15 14 14 14 14 13 13 13 13 13 13 13 13 13 13
19 20 21 20 19 20 19 20 20 21 20 22 20 17 18 16 15 14 12 13 13 14 14 15 15 15 14 14 14 14 13 13 13 13 13 13 13 13 12 12 12 11 12 12
16 19 20 19 20 20 19 20 20 20 17 17 17 17 18 15 14 13 13 13 14 15 15 14 13 13 13 13 13 13 13 13 13 13 13 13 12 12 12 12 12 11 11 11
18 16 17 18 18 20 18 19 18 19 17 17 18 16 14 14 13 13 14 15 16 15 15 14 14 14 14 14 14 14 14 13 13 12 12 11 12 11 11 11 11 12 12 12
16 14 13 16 17 17 17 18 18 18 17 15 15 15 15 14 14 14 14 15 15 15 15 14 14 14 14 14 14 13 13 12 12 12 11 11 11 11 11 11 11 11 11 11
13 13 13 15 13 17 19 19 19 19 19 16 15 14 15 14 14 14 14 15 15 15 15 15 16 16 15 15 14 13 13 13 12 12 11 11 11 11 11 11 11 11 11 12
13 11 14 13 17 16 16 18 19 19 17 19 17 16 15 14 14 13 17 16 17 16 16 16 16 14 14 14 13 13 13 12 12 12 11 11 11 11 11 11 11 11 11 12
13 12 14 14 16 16 17 19 20 17 16 19 18 16 15 14 17 19 18 17 18 17 16 15 15 15 15 14 13 13 13 12 12 12 11 11 11 11 11 11 11 11 12 12
15 14 14 13 15 19 19 18 18 18 19 20 19 18 16 17 18 19 18 17 17 16 15 15 15 15 14 14 13 13 12 12 12 11 11 11 11 11 11 11 11 11 11 12
16 14 14 14 14 16 18 19 20 20 21 21 21 20 20 18 20 19 18 17 16 16 16 15 15 14 14 13 13 13 13 12 12 11 11 11 11 11 11 11 11 11 12 12
15 14 14 15 16 18 18 20 21 21 21 21 21 20 20 20 19 19 18 17 16 16 15 15 15 14 14 13 13 13 12 12 12 11 11 11 11 11 11 11 11 11 12 12
15 15 13 14 16 18 19 20 20 20 20 20 19 19 19 19 18 18 17 16 16 16 15 15 15 14 13 13 13 12 12 12 11 11 11 11 11 11 11 11 12 12 12 13
15 14 14 15 19 19 19 19 19 20 19 20 19 19 19 18 18 17 17 17 16 15 15 15 14 13 13 13 12 12 11 11 11 11 11 11 11 11 11 12 12 12 13 13
Height
1521 1528 1535 1519 1524 1522 1525 1533 1538 1534 1528 1531 1529 1536 1535 1535 1540 1541 1540 1541 1543 1545 1548 1551 1554 1558 1561 1565 1567 1570 1573 1575 1577 1578 1581 1584 1585 1587 1588 1589 1589 1590 1591 1590
1525 1529 1513 1516 1523 1526 1529 1536 1539 1533 1531 1534 1537 1536 1533 1535 1532 1532 1535 1538 1539 1542 1546 1549 1553 1555 1558 1560 1564 1567 1571 1574 1574 1575 1579 1582 1583 1585 1585 1586 1586 1587 1589 1589
1525 1510 1506 1512 1521 1527 1533 1534 1535 1534 1534 1538 1540 1541 1534 1533 1531 1530 1530 1532 1536 1538 1542 1545 1548 1551 1555 1558 1560 1564 1567 1570 1574 1577 1578 1580 1582 1583 1583 1584 1585 1586 1587 1587
1515 1501 1502 1509 1519 1521 1536 1518 1522 1531 1540 1551 1535 1561 1538 1530 1528 1527 1525 1527 1531 1535 1540 1544 1546 1549 1552 1555 1560 1563 1566 1568 1571 1573 1576 1578 1579 1581 1581 1581 1582 1584 1585 1584
1512 1504 1505 1512 1509 1511 1515 1512 1526 1537 1548 1549 1551 1557 1535 1525 1526 1516 1518 1522 1526 1531 1536 1538 1542 1544 1548 1554 1556 1560 1564 1567 1570 1572 1573 1575 1578 1579 1579 1579 1580 1581 1581 1580
1504 1501 1499 1499 1498 1501 1503 1524 1540 1545 1553 1563 1544 1551 1534 1527 1508 1506 1513 1516 1519 1525 1530 1535 1538 1544 1548 1550 1553 1557 1561 1565 1568 1570 1572 1574 1574 1576 1577 1577 1577 1578 1577 1576
1504 1503 1496 1494 1500 1505 1513 1534 1572 1571 1569 1557 1539 1550 1521 1503 1499 1494 1503 1510 1514 1519 1524 1530 1535 1540 1545 1548 1551 1555 1558 1562 1565 1567 1569 1571 1572 1573 1574 1574 1574 1574 1574 1574
1526 1528 1494 1489 1495 1508 1517 1521 1540 1561 1574 1553 1540 1549 1517 1501 1496 1495 1500 1506 1512 1517 1521 1526 1531 1537 1542 1545 1548 1552 1556 1559 1562 1563 1566 1567 1568 1570 1570 1571 1572 1571 1572 1573
1529 1522 1489 1488 1487 1492 1500 1518 1505 1535 1539 1547 1541 1523 1511 1507 1508 1503 1505 1507 1512 1516 1520 1524 1528 1532 1538 1541 1544 1549 1553 1558 1559 1559 1561 1564 1565 1566 1566 1569 1571 1571 1570 1570
1503 1517 1491 1486 1485 1488 1492 1494 1519 1529 1543 1544 1537 1525 1523 1518 1516 1513 1512 1513 1516 1518 1520 1522 1524 1528 1534 1536 1539 1545 1548 1551 1555 1558 1561 1562 1564 1564 1566 1568 1569 1571 1570 1569
1498 1507 1500 1490 1493 1496 1497 1505 1511 1517 1530 1543 1548 1534 1512 1516 1516 1518 1519 1520 1520 1522 1525 1529 1528 1523 1527 1532 1536 1539 1544 1548 1550 1555 1560 1561 1562 1563 1565 1567 1565 1566 1566 1567
1495 1509 1514 1501 1487 1486 1484 1489 1502 1528 1527 1535 1533 1533 1517 1518 1519 1519 1521 1521 1522 1525 1531 1536 1541 1526 1531 1530 1535 1531 1541 1547 1552 1554 1557 1559 1561 1562 1563 1562 1564 1563 1564 1565
1492 1509 1525 1510 1500 1489 1493 1491 1499 1510 1517 1533 1534 1530 1520 1522 1523 1522 1518 1519 1521 1519 1523 1527 1538 1539 1533 1535 1536 1540 1545 1550 1553 1555 1557 1559 1560 1562 1563 1566 1565 1564 1565 1564
1487 1510 1512 1526 1511 1504 1504 1498 1492 1503 1522 1526 1522 1520 1517 1519 1521 1524 1523 1523 1527 1527 1520 1528 1540 1543 1539 1537 1540 1543 1546 1551 1553 1553 1557 1560 1560 1561 1563 1564 1564 1565 1563 1563
1489 1507 1502 1507 1506 1503 1508 1506 1499 1498 1504 1506 1503 1513 1510 1516 1520 1525 1526 1525 1527 1528 1529 1534 1539 1540 1540 1541 1542 1547 1547 1551 1554 1555 1557 1559 1560 1561 1561 1563 1563 1564 1562 1562
1491 1509 1505 1516 1508 1503 1510 1506 1503 1502 1507 1509 1508 1513 1511 1519 1521 1526 1528 1528 1527 1528 1531 1535 1539 1542 1542 1544 1546 1546 1547 1550 1553 1556 1557 1558 1559 1560 1562 1562 1562 1561 1561 1560
1495 1504 1512 1524 1513 1509 1524 1516 1511 1505 1506 1510 1512 1511 1513 1519 1524 1525 1526 1526 1525 1527 1531 1535 1538 1541 1544 1546 1547 1546 1549 1553 1554 1555 1556 1557 1557 1558 1559 1560 1560 1557 1557 1558
1499 1507 1518 1524 1518 1542 1521 1509 1511 1509 1507 1506 1507 1511 1512 1515 1521 1524 1526 1528 1530 1531 1533 1536 1538 1541 1543 1547 1548 1549 1551 1552 1553 1555 1555 1556 1556 1557 1557 1557 1555 1556 1555 1554
1494 1505 1524 1529 1543 1527 1515 1510 1507 1511 1512 1505 1506 1511 1514 1519 1523 1525 1528 1529 1533 1535 1536 1537 1540 1543 1546 1547 1548 1550 1551 1552 1553 1552 1554 1555 1555 1554 1554 1554 1553 1552 1550 1547
1498 1501 1511 1529 1528 1540 1514 1502 1503 1507 1522 1502 1504 1505 1506 1517 1522 1520 1520 1528 1532 1537 1536 1538 1541 1544 1547 1548 1549 1549 1550 1550 1550 1551 1552 1552 1553 1553 1553 1551 1548 1547 1545 1543
1516 1518 1524 1526 1525 1517 1504 1503 1506 1528 1522 1502 1505 1507 1513 1516 1514 1517 1521 1527 1534 1537 1538 1540 1542 1544 1546 1546 1548 1548 1549 1549 1549 1550 1550 1550 1550 1549 1548 1546 1545 1542 1541 1539
1516 1522 1526 1530 1526 1520 1501 1503 1511 1504 1500 1502 1505 1508 1512 1514 1517 1518 1522 1526 1531 1534 1537 1539 1541 1544 1546 1547 1547 1547 1547 1548 1548 1548 1547 1547 1546 1545 1543 1541 1540 1538 1537 1535
1516 1510 1517 1517 1517 1501 1500 1499 1498 1499 1502 1504 1506 1508 1511 1514 1516 1518 1521 1524 1528 1533 1536 1539 1541 1542 1544 1545 1545 1545 1544 1545 1545 1545 1544 1543 1542 1540 1538 1536 1534 1533 1532 1530
1506 1504 1508 1508 1505 1502 1499 1499 1500 1502 1504 1506 1508 1510 1513 1514 1516 1518 1520 1523 1528 1532 1534 1538 1540 1541 1542 1543 1542 1541 1541 1542 1541 1541 1540 1539 1538 1536 1535 1533 1531 1530 1528 1526
1503 1504 1507 1508 1503 1502 1502 1501 1503 1505 1507 1509 1511 1512 1514 1516 1517 1518 1521 1524 1527 1530 1533 1536 1537 1539 1539 1539 1539 1538 1537 1537 1537 1536 1536 1535 1534 1531 1529 1528 1526 1525 1523 1521
1497 1498 1505 1506 1494 1495 1500 1504 1506 1507 1508 1510 1511 1513 1515 1516 1517 1519 1521 1523 1526 1529 1532 1533 1535 1535 1535 1535 1535 1534 1533 1532 1532 1532 1531 1530 1528 1526 1524 1522 1520 1519 1516 1514
Wind_Speed
10 3 6 11 7 1 12 12 10 5 5 1 6 2 17 25 22 21 25 27 31 31 33 31 32 30 31 29 28 27 23 22 22 21 24 18 14 11 10 11 10 10 10 10
1 8 14 10 7 5 6 8 1 3 2 3 2 10 14 20 26 28 24 27 33 37 34 33 33 30 31 31 31 30 25 20 20 21 26 20 17 14 9 8 9 12 13 12
7 11 6 10 6 6 4 7 9 4 5 2 0 6 6 8 18 21 25 32 31 36 38 33 33 32 32 32 33 32 27 23 20 21 22 21 18 18 17 14 13 13 15 16
5 11 10 9 4 6 6 12 12 11 8 4 5 4 7 12 8 13 25 28 36 37 38 36 36 33 32 31 31 32 27 25 23 20 22 22 19 16 13 13 11 11 10 11
8 5 5 4 6 13 10 9 5 7 4 3 2 1 6 7 16 19 22 29 37 43 39 38 37 32 26 27 28 32 28 27 24 20 18 22 18 15 13 13 12 10 8 10
7 5 4 7 4 19 8 11 9 4 3 3 8 6 6 6 26 21 19 31 36 43 43 40 36 33 28 27 26 29 29 30 26 24 21 21 20 18 15 13 12 11 12 12
5 4 4 6 2 6 9 8 3 2 1 6 2 7 12 5 6 25 22 26 33 38 42 42 39 36 32 30 28 29 31 30 27 26 22 24 21 18 15 14 14 11 13 10
4 9 6 5 6 8 13 9 6 7 5 3 5 6 5 10 5 13 16 20 27 34 35 40 39 35 34 32 29 30 31 33 30 28 24 25 24 21 19 19 17 13 11 8
6 7 3 4 4 8 4 6 6 7 2 3 4 5 3 13 13 19 19 17 14 20 25 26 30 32 34 36 33 31 32 33 31 28 22 21 22 18 15 12 9 10 9 8
3 4 5 3 3 1 7 5 2 3 4 4 5 4 4 3 8 11 15 17 17 15 17 24 27 29 30 34 34 33 34 34 25 18 16 16 15 13 11 12 9 6 7 9
4 7 10 3 3 7 0 2 5 5 5 6 3 5 4 7 10 11 15 19 18 17 14 11 16 29 32 29 26 28 25 19 17 17 13 11 12 12 11 11 12 11 9 9
2 4 7 14 4 5 2 2 6 5 4 1 3 4 6 8 14 21 19 22 21 16 12 6 2 13 18 17 12 16 21 21 18 19 17 15 13 12 13 9 10 9 8 7
4 0 2 7 6 5 5 3 4 4 3 6 6 4 7 12 14 19 25 25 23 22 15 5 11 13 14 13 15 14 14 13 12 12 10 8 7 5 4 6 5 3 3 2
4 3 5 6 4 2 3 6 3 4 4 5 5 8 12 13 10 10 13 18 15 19 24 22 15 12 10 10 10 11 11 10 10 10 9 5 4 4 4 4 3 3 3 3
4 3 3 4 9 8 6 6 7 3 1 4 6 7 14 14 12 13 11 17 20 19 19 17 16 12 11 10 10 10 10 9 7 7 6 3 2 1 1 1 2 3 4 7
2 3 4 6 5 12 7 11 6 4 5 5 7 4 8 8 11 12 14 19 18 16 16 16 13 10 9 9 9 8 7 6 4 3 2 2 2 1 3 4 5 6 7 8
3 4 3 5 2 3 7 8 8 2 4 5 4 5 9 7 12 16 19 18 17 18 17 13 10 9 9 8 7 6 5 3 3 3 3 2 2 4 6 8 9 9 10 11
3 3 3 3 1 3 7 3 3 6 4 6 10 7 9 13 11 17 18 19 18 18 14 12 11 10 8 7 5 4 3 3 3 4 4 5 6 8 10 12 11 11 12 12
4 5 4 4 3 2 4 6 3 2 2 6 11 10 11 12 7 8 17 18 15 15 14 14 11 8 4 3 3 3 4 6 7 7 8 9 9 10 12 12 12 13 13 11
5 7 4 3 5 7 8 5 6 1 4 15 9 14 19 20 5 4 22 18 15 14 15 15 14 10 7 7 6 5 5 7 9 9 8 8 8 11 14 16 17 16 14 15
4 4 3 1 2 4 4 5 8 5 7 12 15 23 24 8 7 9 21 20 20 18 18 16 12 7 6 7 7 6 6 6 7 6 6 9 11 14 18 19 20 19 17 19
3 4 1 2 3 3 5 6 6 5 5 9 11 21 28 17 12 8 23 24 25 24 21 17 13 12 10 8 9 8 8 7 8 8 10 12 15 18 20 22 22 19 18 20
1 5 4 6 5 4 3 4 7 10 12 9 8 9 14 20 9 15 27 26 26 23 20 17 14 9 9 10 11 11 10 10 12 14 13 15 18 18 20 20 21 18 20 20
2 3 2 2 2 2 3 11 10 12 11 10 12 16 19 16 17 20 24 27 26 24 19 13 11 10 12 12 12 15 15 16 14 14 16 17 19 17 17 17 17 17 19 21
4 5 4 2 2 6 9 15 16 14 11 10 10 10 9 10 16 20 25 27 24 21 16 12 10 10 11 12 13 12 13 13 14 15 17 19 19 18 17 17 16 16 19 21
8 6 4 5 15 9 18 18 17 15 12 10 10 10 9 9 11 17 19 21 22 20 15 13 13 14 13 13 13 12 12 13 15 17 18 19 20 19 20 18 18 20 24 22
Wind_Direction
188 153 198 225 189 8 148 168 150 205 190 181 192 281 193 197 202 208 212 211 211 206 215 211 208 206 205 206 209 207 203 203 212 209 198 198 201 201 213 234 221 218 219 223
129 240 231 214 128 115 129 141 108 266 3 110 234 252 212 201 212 211 209 211 213 212 208 209 208 210 209 209 209 209 210 210 203 204 198 202 208 205 212 228 219 228 226 242
189 246 253 176 156 146 150 194 181 185 122 37 346 308 200 225 227 227 219 224 214 205 208 202 206 210 211 215 211 210 210 206 198 200 199 206 208 215 226 237 241 240 244 246
226 271 263 155 173 138 176 208 189 145 142 214 159 258 244 218 235 231 224 209 209 207 206 204 205 208 214 218 216 211 214 208 194 193 207 207 207 219 234 237 240 252 248 264
241 306 311 148 204 171 228 168 151 150 64 342 275 56 261 207 227 231 215 204 204 212 211 208 208 208 209 214 215 213 216 209 205 203 209 214 218 237 248 244 248 253 256 249
250 253 227 223 182 185 75 100 43 52 31 295 199 169 266 191 218 229 212 208 198 206 211 212 213 211 210 214 215 213 215 212 209 208 217 222 226 236 239 240 246 252 252 239
295 216 254 230 152 73 101 104 63 23 248 236 217 161 248 241 254 219 196 202 203 204 210 214 212 213 208 213 215 212 210 213 207 212 219 224 228 236 241 251 245 249 248 247
178 314 183 169 172 168 172 170 161 195 204 225 92 228 278 320 329 174 182 195 203 203 206 214 214 215 215 210 215 211 214 209 210 216 225 228 233 238 245 247 241 244 239 224
155 268 275 214 210 142 204 183 194 116 50 105 206 278 62 43 38 58 68 107 133 180 190 199 203 210 212 214 214 214 209 212 216 218 217 224 231 232 232 221 205 208 213 223
275 295 210 280 176 149 150 170 77 5 164 244 299 276 199 53 95 89 78 79 93 127 159 184 192 196 204 210 211 212 209 213 213 217 230 229 213 215 202 189 194 223 257 278
149 146 277 12 199 194 18 280 42 119 133 166 187 253 345 162 136 109 84 91 99 101 110 131 179 188 194 193 201 204 199 201 217 223 202 198 195 192 194 202 210 237 257 268
201 170 211 229 273 304 178 229 146 126 251 121 157 267 99 134 137 115 115 117 114 115 109 94 122 172 189 202 238 236 233 224 214 207 200 201 207 215 212 233 231 236 261 275
188 351 13 351 352 357 68 339 124 117 76 186 144 256 133 149 141 144 143 143 150 141 149 142 213 180 163 164 163 164 172 185 191 193 205 217 226 236 246 247 262 256 259 295
128 101 150 187 224 207 5 329 103 132 122 177 214 166 173 166 163 170 151 154 163 160 146 148 167 165 147 148 164 175 179 185 183 179 168 186 197 221 251 261 275 266 276 339
102 110 107 57 108 87 59 2 4 95 21 152 224 167 176 175 173 178 161 155 155 150 153 167 180 182 176 166 153 152 148 157 175 185 194 203 211 201 218 293 325 308 321 320
29 160 129 49 84 74 61 21 18 38 89 58 75 80 151 146 150 166 172 173 172 175 184 188 192 185 159 150 150 146 151 166 166 174 151 136 138 338 310 301 301 303 314 313
87 121 83 181 297 50 30 342 342 124 64 146 190 169 138 137 167 186 190 193 195 193 195 197 183 162 154 139 126 115 125 154 159 157 172 207 285 324 327 319 310 308 305 298
119 83 68 146 83 75 232 295 284 74 76 94 96 134 149 154 188 199 200 202 207 207 202 186 170 155 147 158 156 156 154 189 210 225 243 267 288 308 319 319 317 302 303 305
37 118 67 117 77 344 323 265 183 104 291 190 148 150 140 147 146 219 215 209 220 211 188 171 159 166 177 191 207 237 278 275 268 272 283 285 290 307 317 310 310 309 306 304
53 68 107 119 126 188 225 221 210 73 280 203 188 163 146 148 142 240 196 198 189 194 178 175 177 184 207 213 228 259 282 293 292 282 283 282 297 312 313 315 311 306 299 303
3 5 98 81 162 281 250 175 132 107 236 178 178 163 161 186 165 199 185 182 189 186 184 184 185 200 221 235 245 247 269 316 314 280 284 292 297 303 311 311 310 301 296 300
152 125 166 87 69 271 174 111 162 213 160 182 188 189 184 181 201 191 192 193 197 198 193 191 202 209 213 234 251 262 278 313 298 292 296 298 301 303 306 305 301 290 293 296
226 176 183 166 215 274 285 235 217 167 149 153 158 178 198 193 215 190 199 205 207 197 195 203 208 219 234 250 258 266 283 278 272 268 275 292 299 304 307 300 298 287 293 287
246 175 122 74 227 258 106 141 152 174 172 166 172 176 188 195 191 198 200 197 192 194 196 201 215 234 244 249 263 272 269 266 262 267 285 295 301 304 306 301 297 292 287 291
207 138 149 300 348 110 132 138 137 133 141 151 153 163 171 195 201 203 193 192 196 196 196 207 224 242 257 262 268 274 266 262 271 284 291 294 298 304 303 299 292 293 290 297
188 178 161 214 194 174 179 157 149 147 148 156 171 184 199 215 223 213 212 212 204 200 209 223 238 246 257 267 282 285 273 268 277 284 289 295 303 306 309 309 302 308 306 296